STARLINK-31970, 59928

Orbit data source: Space-Track

STARLINK-31970, 59928 is a payload satellite owned by SpaceX/Seattle (US) in LEO that was launched on Sat, 01 Jun 2024 UTC via an FALCON 9 launch vehicle from the Air Force Eastern Test Range (AFETR). Payload-class satellites include a variety of spacecraft equipped with specific instruments for various scientific and technological missions. These include communications satellites like Starlink; space stations such as the ISS; scientific satellites like the Hubble; Earth observation satellites from companies like Planet Labs, Umbra, and HawkEye 360; GPS; miniature CubeSats for education and research; and military/defense satellites.

Loading next visibility...
Identifier
59928, 2024-106G
Orbit
LEO
Country
Flag of USUS
Related business
Manufacturer
SpaceX/Seattle
Mission
Operational Commercial Communications
Bus & Motor
STARLINK V2M, Unknown motor
Mass
730 kg wet, ~700 kg dry
Launch date (UTC)
2024-06-01 (2 years ago)
Launch vehicle
FALCON 9
Launch site
Air Force Eastern Test Range (AFETR)
Object type
Payload
Rocket body
Debris
Shape & HBR
Box + 2 Pan, 17.7 m
Radar Cross Section
33.884 m², Large (>1 m²)

Expand to show TLE details & history
Last TLE update: 7 hours ago

TLE from 7 hours ago
0 STARLINK-31970
1 59928U 24106G   26177.76351604 -.00003353  00000-0 -11245-3 0  9993
2 59928  43.0021  76.5830 0000382 283.2408  76.8401 15.27560743117256
Epoch: 2026-06-26T18:19Z
TLE epoch observation values (Epoch: 2026-06-26T18:19:27.785Z)
Latitude
-0.00004°
Longitude
-113.17016°
Altitude
482.823 km
Speed
7.626 km/s
True Right ascension
05h 06m 19s
True Declination
0° 00' 00"
Sunlit
Object was in daylight at epoch
Visualization orbit readout
Latitude
Unknown
Longitude
Unknown
Altitude
Unknown
Speed
Unknown
Apparent Right ascension
Unknown
Apparent Declination
Unknown
Sunlit
N/A
Visualization observer readout
Local Sidereal Time
12:44:56
Azimuth
Unknown
Elevation
Unknown
Doppler factor
Unknown
Orbital elements
Apogee altitude
485.314 km
Perigee altitude
484.789 km
Semi-major axis
6,863.189 km
Eccentricity
0.00004
Inclination
43.0021°
RAAN
76.583°
Arg. of periapsis
283.2408°
True anomaly
76.84436°
Mean anomaly
76.8401°
Eccentric anomaly
76.84223°
Mean motion
3.81728 °/min
Orbital period
94.31 mins
BSTAR
-0.00011245
Loading maneuver chart data...
Computing Atmospheric mass density...
Loading historical data...
Loading historical data...
Loading historical data...
Loading historical data...
Loading historical data...
Loading historical data...
Loading historical data...

Documentation

Showing up to 5 results
|